RCH3312 ENOL-EGUN

Flight info

Callsign RCH3312
Flight time 2h 6m
Altitude 28000
Route KVB DCT VOO/N0422F370 DCT STD/N0422F380 DCT KRM DCT KLONN DCT ACAGE DCT OTR/N0426F390 DCT MAM
Aircraft C17/H-SDE1E2FGHIJ5RTUWXY/LB1D1

Departure

Time 2026-05-08 00:08
Airport Ørland Airport (ENOL)

Arrival

Time 2026-05-08 02:14
Airport RAF Mildenhall (EGUN)
Time Latitude Longitude Altitude Speed Heading
2026-05-07 23:59 63.71116 9.59969 30 ft 0 kts 157°
2026-05-08 00:05 63.71134 9.59952 29 ft 0 kts 155°
2026-05-08 00:05 63.71132 9.59956 29 ft 5 kts 169°
2026-05-08 00:05 63.71153 9.59954 27 ft 0 kts 183°
2026-05-08 00:06 63.71139 9.59942 30 ft 6 kts 212°
2026-05-08 00:06 63.71101 9.59752 32 ft 22 kts 249°
2026-05-08 00:06 63.71055 9.59424 32 ft 18 kts 257°
2026-05-08 00:06 63.70990 9.59270 33 ft 15 kts 202°
2026-05-08 00:07 63.70885 9.59291 34 ft 16 kts 147°
2026-05-08 00:07 63.70739 9.59469 34 ft 42 kts 153°
2026-05-08 00:07 63.70202 9.60065 35 ft 123 kts 153°
2026-05-08 00:07 63.69294 9.61037 200 ft 158 kts 154°
2026-05-08 00:08 63.68289 9.61987 811 ft 163 kts 159°
2026-05-08 00:08 63.67123 9.61562 1064 ft 183 kts 216°
2026-05-08 00:08 63.66485 9.59017 1403 ft 194 kts 260°
2026-05-08 00:08 63.66302 9.55953 1819 ft 200 kts 262°
2026-05-08 00:09 63.66156 9.52843 2280 ft 199 kts 263°
2026-05-08 00:09 63.65838 9.49797 2644 ft 200 kts 250°
2026-05-08 00:09 63.65322 9.46914 3095 ft 200 kts 244°
2026-05-08 00:09 63.64701 9.44142 3553 ft 197 kts 240°
2026-05-08 00:10 63.64034 9.41417 3920 ft 198 kts 238°
2026-05-08 00:10 63.63314 9.38797 4344 ft 198 kts 234°
2026-05-08 00:10 63.62518 9.36283 4695 ft 195 kts 232°
2026-05-08 00:10 63.61704 9.33817 5035 ft 198 kts 232°
2026-05-08 00:11 63.60901 9.31347 5410 ft 195 kts 233°
2026-05-08 00:11 63.60110 9.28840 5669 ft 197 kts 234°
2026-05-08 00:11 63.59326 9.26331 6022 ft 195 kts 234°
2026-05-08 00:11 63.59211 9.25964 6040 ft 198 kts 234°
2026-05-08 00:12 63.58399 9.23381 6652 ft 227 kts 234°
2026-05-08 00:12 63.57415 9.20282 7309 ft 252 kts 234°
2026-05-08 00:12 63.56403 9.17100 7955 ft 253 kts 234°
2026-05-08 00:13 63.55369 9.13858 8597 ft 254 kts 234°
2026-05-08 00:13 63.54339 9.10624 9266 ft 256 kts 234°
2026-05-08 00:13 63.53298 9.07360 9958 ft 257 kts 234°
2026-05-08 00:13 63.52255 9.04097 10600 ft 258 kts 234°
2026-05-08 00:14 63.51189 9.00770 11228 ft 274 kts 234°
2026-05-08 00:14 63.50016 8.97117 11886 ft 304 kts 234°
2026-05-08 00:14 63.48765 8.93211 12549 ft 310 kts 234°
2026-05-08 00:14 63.47501 8.89282 13219 ft 313 kts 234°
2026-05-08 00:15 63.46220 8.85309 13910 ft 316 kts 234°
2026-05-08 00:15 63.44926 8.81302 14522 ft 320 kts 234°
2026-05-08 00:15 63.43637 8.77316 15146 ft 321 kts 235°
2026-05-08 00:15 63.42312 8.73223 15795 ft 322 kts 235°
2026-05-08 00:16 63.40926 8.69346 16445 ft 326 kts 224°
2026-05-08 00:16 63.39012 8.66558 17114 ft 333 kts 212°
2026-05-08 00:16 63.36971 8.64052 17779 ft 338 kts 211°
2026-05-08 00:16 63.34878 8.61606 18478 ft 340 kts 211°
2026-05-08 00:17 63.32768 8.59194 19108 ft 342 kts 211°
2026-05-08 00:17 63.30707 8.56571 19707 ft 342 kts 216°
2026-05-08 00:17 63.28701 8.53694 20358 ft 344 kts 217°
2026-05-08 00:17 63.26675 8.50821 20996 ft 347 kts 217°
2026-05-08 00:18 63.24618 8.47962 21654 ft 350 kts 217°
2026-05-08 00:18 63.22550 8.45097 22289 ft 351 kts 217°
2026-05-08 00:18 63.20473 8.42213 23002 ft 354 kts 218°
2026-05-08 00:18 63.18377 8.39301 23699 ft 358 kts 218°
2026-05-08 00:19 63.16250 8.36357 24300 ft 363 kts 218°
2026-05-08 00:19 63.14105 8.33399 24906 ft 365 kts 218°
2026-05-08 00:19 63.11950 8.30430 25520 ft 364 kts 218°
2026-05-08 00:19 63.09807 8.27479 26136 ft 367 kts 218°
2026-05-08 00:20 63.07613 8.24462 26765 ft 371 kts 218°
2026-05-08 00:20 63.05414 8.21448 27427 ft 375 kts 218°
2026-05-08 00:20 63.03175 8.18380 27860 ft 383 kts 219°
2026-05-08 00:20 63.00894 8.15270 28003 ft 386 kts 218°
2026-05-08 00:21 62.96352 8.09080 28133 ft 381 kts 219°
2026-05-08 00:21 62.91765 8.02844 28136 ft 403 kts 218°
2026-05-08 00:22 62.89358 7.99589 28145 ft 421 kts 218°
2026-05-08 00:22 62.86776 7.96111 28146 ft 438 kts 217°
2026-05-08 00:22 62.84140 7.92564 28169 ft 453 kts 217°
2026-05-08 00:22 62.81413 7.88890 28158 ft 467 kts 217°
2026-05-08 00:23 62.78609 7.85132 28152 ft 480 kts 217°
2026-05-08 00:23 62.75728 7.81272 28144 ft 491 kts 217°
2026-05-08 00:23 62.69781 7.73340 28143 ft 510 kts 216°
2026-05-08 00:24 62.63634 7.65180 28110 ft 524 kts 216°
2026-05-08 00:24 62.57399 7.56946 28137 ft 532 kts 216°
2026-05-08 00:25 62.51053 7.48600 28112 ft 533 kts 216°
2026-05-08 00:25 62.44660 7.40240 28142 ft 534 kts 216°
2026-05-08 00:26 62.38351 7.32029 28146 ft 533 kts 216°
2026-05-08 00:26 62.31989 7.23795 28145 ft 534 kts 215°
2026-05-08 00:27 62.25630 7.15600 28098 ft 533 kts 215°
2026-05-08 00:27 62.19258 7.07433 28086 ft 533 kts 215°
2026-05-08 00:28 62.12894 6.99317 28131 ft 533 kts 215°
2026-05-08 00:28 62.06505 6.91204 28119 ft 533 kts 215°
2026-05-08 00:29 62.00133 6.83157 28110 ft 533 kts 214°
2026-05-08 00:29 61.93747 6.75135 28120 ft 533 kts 214°
2026-05-08 00:30 61.88442 6.68494 28101 ft 533 kts 214°
2026-05-08 00:30 61.80969 6.59191 28117 ft 533 kts 214°
2026-05-08 00:31 61.74574 6.51271 28112 ft 533 kts 214°
2026-05-08 00:31 61.68174 6.43380 28113 ft 533 kts 214°
2026-05-08 00:32 61.61754 6.35506 28081 ft 533 kts 213°
2026-05-08 00:32 61.55336 6.27672 28111 ft 534 kts 213°
2026-05-08 00:33 61.48907 6.19865 28110 ft 534 kts 213°
2026-05-08 00:33 61.42464 6.12078 28108 ft 535 kts 213°
2026-05-08 00:34 61.36026 6.04334 28106 ft 535 kts 213°
2026-05-08 00:34 61.29580 5.96612 28091 ft 535 kts 213°
2026-05-08 00:35 61.23116 5.88911 28098 ft 535 kts 212°
2026-05-08 00:35 61.16707 5.81311 28115 ft 535 kts 212°
2026-05-08 00:36 61.10240 5.73677 28103 ft 535 kts 212°
2026-05-08 00:36 61.03772 5.66081 28122 ft 535 kts 212°
2026-05-08 00:37 60.97296 5.58509 28108 ft 535 kts 212°
2026-05-08 00:38 60.87562 5.47196 28116 ft 536 kts 212°
2026-05-08 00:38 60.81066 5.39691 28133 ft 536 kts 211°
2026-05-08 00:39 60.74560 5.32209 28116 ft 536 kts 211°
2026-05-08 00:39 60.68048 5.24758 28118 ft 536 kts 211°
2026-05-08 00:40 60.61607 5.17358 28119 ft 536 kts 212°
2026-05-08 00:40 60.55036 5.09966 28123 ft 537 kts 211°
2026-05-08 00:41 60.48515 5.02599 28121 ft 537 kts 211°
2026-05-08 00:41 60.41982 4.95260 28124 ft 537 kts 210°
2026-05-08 00:42 60.35445 4.87948 28122 ft 537 kts 210°
2026-05-08 00:42 60.28896 4.80658 28121 ft 537 kts 210°
2026-05-08 00:43 60.24109 4.75350 28124 ft 537 kts 210°
2026-05-08 00:49 60.22884 4.73995 28122 ft 537 kts 210°
2026-05-08 00:50 60.16330 4.66768 28123 ft 537 kts 210°
2026-05-08 00:50 60.09765 4.59557 28121 ft 537 kts 210°
2026-05-08 00:51 60.03206 4.52384 28123 ft 537 kts 210°
2026-05-08 00:51 59.96641 4.45242 28116 ft 538 kts 210°
2026-05-08 00:52 59.90071 4.38126 28123 ft 538 kts 210°
2026-05-08 00:52 59.83491 4.31028 28125 ft 538 kts 209°
2026-05-08 00:53 59.76907 4.23960 28118 ft 538 kts 209°
2026-05-08 00:53 59.70322 4.16925 28116 ft 538 kts 209°
2026-05-08 00:54 59.63713 4.09894 28117 ft 539 kts 209°
2026-05-08 00:54 59.57112 4.02900 28117 ft 539 kts 209°
2026-05-08 00:55 59.50497 3.95927 28117 ft 539 kts 209°
2026-05-08 00:55 59.43880 3.88984 28115 ft 539 kts 209°
2026-05-08 00:56 59.37258 3.82062 28112 ft 539 kts 208°
2026-05-08 00:56 59.30625 3.75161 28114 ft 540 kts 208°
2026-05-08 00:57 59.23988 3.68290 28112 ft 540 kts 208°
2026-05-08 00:57 59.17342 3.61438 28109 ft 540 kts 208°
2026-05-08 00:58 59.10700 3.54618 28110 ft 540 kts 208°
2026-05-08 00:58 59.04041 3.47811 28102 ft 540 kts 208°
2026-05-08 00:59 58.97385 3.41041 28107 ft 540 kts 208°
2026-05-08 00:59 58.90722 3.34292 28106 ft 540 kts 208°
2026-05-08 01:00 58.84117 3.27628 28103 ft 541 kts 208°
2026-05-08 01:00 58.77428 3.20910 28104 ft 541 kts 207°
2026-05-08 01:01 58.70755 3.14240 28104 ft 541 kts 207°
2026-05-08 01:01 58.64071 3.07586 28101 ft 541 kts 207°
2026-05-08 01:02 58.57390 3.00961 28093 ft 541 kts 207°
2026-05-08 01:02 58.50700 2.94359 28088 ft 541 kts 207°
2026-05-08 01:03 58.43997 2.87775 28084 ft 541 kts 207°
2026-05-08 01:03 58.37236 2.81493 28088 ft 541 kts 201°
2026-05-08 01:04 58.30223 2.76282 28085 ft 541 kts 201°
2026-05-08 01:04 58.23202 2.71066 28082 ft 541 kts 201°
2026-05-08 01:05 58.16188 2.65858 28084 ft 541 kts 201°
2026-05-08 01:05 58.09171 2.60667 28088 ft 541 kts 201°
2026-05-08 01:06 58.02147 2.55492 28093 ft 542 kts 201°
2026-05-08 01:06 57.95118 2.50338 28091 ft 542 kts 201°
2026-05-08 01:07 57.88077 2.45196 28082 ft 543 kts 201°
2026-05-08 01:07 57.81043 2.40079 28080 ft 543 kts 201°
2026-05-08 01:08 57.73999 2.34977 28075 ft 543 kts 201°
2026-05-08 01:08 57.66951 2.29896 28072 ft 543 kts 201°
2026-05-08 01:09 57.59896 2.24830 28077 ft 543 kts 201°
2026-05-08 01:09 57.52833 2.19776 28077 ft 543 kts 201°
2026-05-08 01:10 57.45782 2.14754 28079 ft 543 kts 201°
2026-05-08 01:10 57.38713 2.09742 28081 ft 544 kts 200°
2026-05-08 01:11 57.31640 2.04745 28088 ft 544 kts 200°
2026-05-08 01:11 57.24569 1.99769 28087 ft 544 kts 200°
2026-05-08 01:12 57.17537 1.94843 28087 ft 544 kts 200°
2026-05-08 01:12 57.10417 1.89876 28088 ft 544 kts 200°
2026-05-08 01:13 57.03335 1.84957 28092 ft 544 kts 200°
2026-05-08 01:13 56.96293 1.80082 28090 ft 544 kts 200°
2026-05-08 01:14 56.89153 1.75159 28086 ft 544 kts 200°
2026-05-08 01:14 56.82111 1.70326 28088 ft 545 kts 200°
2026-05-08 01:15 56.74966 1.65443 28090 ft 545 kts 200°
2026-05-08 01:15 56.67918 1.60644 28094 ft 545 kts 200°
2026-05-08 01:16 56.60819 1.55828 28090 ft 545 kts 200°
2026-05-08 01:16 56.53708 1.51025 28091 ft 545 kts 200°
2026-05-08 01:17 56.46596 1.46242 28088 ft 545 kts 199°
2026-05-08 01:17 56.39479 1.41473 28087 ft 546 kts 199°
2026-05-08 01:18 56.32350 1.36714 28089 ft 546 kts 199°
2026-05-08 01:18 56.25217 1.31973 28091 ft 547 kts 199°
2026-05-08 01:19 56.18073 1.27245 28091 ft 547 kts 199°
2026-05-08 01:19 56.10926 1.22531 28093 ft 548 kts 199°
2026-05-08 01:20 56.03768 1.17828 27905 ft 551 kts 199°
2026-05-08 01:20 56.00187 1.15485 27383 ft 529 kts 199°
2026-05-08 01:20 55.96903 1.13335 27132 ft 477 kts 199°
2026-05-08 01:20 55.93933 1.11398 27000 ft 434 kts 199°
2026-05-08 01:21 55.91217 1.09631 26863 ft 398 kts 199°
2026-05-08 01:21 55.88699 1.07992 26727 ft 375 kts 199°
2026-05-08 01:21 55.86281 1.06422 26596 ft 368 kts 199°
2026-05-08 01:21 55.83871 1.04859 26470 ft 369 kts 199°
2026-05-08 01:22 55.81458 1.03294 26339 ft 370 kts 199°
2026-05-08 01:22 55.79043 1.01731 26220 ft 370 kts 199°
2026-05-08 01:22 55.76625 1.00169 26095 ft 369 kts 199°
2026-05-08 01:22 55.74218 0.98616 25964 ft 368 kts 199°
2026-05-08 01:23 55.71814 0.97065 25846 ft 367 kts 199°
2026-05-08 01:23 55.69413 0.95520 25727 ft 367 kts 199°
2026-05-08 01:23 55.67020 0.93981 25627 ft 366 kts 199°
2026-05-08 01:23 55.64624 0.92443 25527 ft 366 kts 200°
2026-05-08 01:24 55.62233 0.90911 25430 ft 366 kts 200°
2026-05-08 01:24 55.59837 0.89377 25325 ft 365 kts 200°
2026-05-08 01:24 55.57453 0.87851 25231 ft 365 kts 200°
2026-05-08 01:24 55.55063 0.86326 25136 ft 364 kts 200°
2026-05-08 01:25 55.52684 0.84807 25035 ft 364 kts 200°
2026-05-08 01:25 55.50304 0.83290 24946 ft 364 kts 200°
2026-05-08 01:25 55.47926 0.81779 24840 ft 363 kts 200°
2026-05-08 01:25 55.45552 0.80270 24745 ft 363 kts 200°
2026-05-08 01:26 55.43174 0.78761 24644 ft 362 kts 200°
2026-05-08 01:26 55.40805 0.77259 24553 ft 362 kts 200°
2026-05-08 01:26 55.38439 0.75762 24460 ft 362 kts 200°
2026-05-08 01:26 55.36074 0.74267 24363 ft 361 kts 200°
2026-05-08 01:27 55.33708 0.72773 24264 ft 361 kts 200°
2026-05-08 01:27 55.31348 0.71283 24166 ft 361 kts 200°
2026-05-08 01:27 55.28986 0.69797 24076 ft 360 kts 200°
2026-05-08 01:27 55.26631 0.68315 23974 ft 360 kts 200°
2026-05-08 01:28 55.24275 0.66836 23885 ft 360 kts 200°
2026-05-08 01:28 55.21927 0.65362 23798 ft 359 kts 200°
2026-05-08 01:28 55.19567 0.63883 23694 ft 359 kts 200°
2026-05-08 01:28 55.17228 0.62420 23589 ft 358 kts 200°
2026-05-08 01:29 55.14873 0.60948 23469 ft 358 kts 200°
2026-05-08 01:29 55.12534 0.59488 23362 ft 357 kts 200°
2026-05-08 01:29 55.10201 0.58033 23242 ft 357 kts 200°
2026-05-08 01:29 55.08650 0.57067 23166 ft 357 kts 200°
2026-05-08 01:30 55.06310 0.55611 23060 ft 356 kts 200°
2026-05-08 01:30 55.03978 0.54162 22948 ft 356 kts 200°
2026-05-08 01:30 55.01658 0.52677 22835 ft 355 kts 201°
2026-05-08 01:30 54.99323 0.51293 22724 ft 354 kts 197°
2026-05-08 01:31 54.96945 0.50161 22613 ft 355 kts 196°
2026-05-08 01:31 54.94565 0.49028 22491 ft 354 kts 197°
2026-05-08 01:31 54.92196 0.47861 22393 ft 353 kts 197°
2026-05-08 01:31 54.89837 0.46695 22287 ft 353 kts 197°
2026-05-08 01:32 54.87469 0.45535 22115 ft 354 kts 197°
2026-05-08 01:32 54.85106 0.44383 21866 ft 351 kts 197°
2026-05-08 01:32 54.82758 0.43235 21630 ft 350 kts 197°
2026-05-08 01:32 54.80419 0.42093 21391 ft 349 kts 197°
2026-05-08 01:33 54.78089 0.40957 21158 ft 347 kts 197°
2026-05-08 01:33 54.75764 0.39825 20913 ft 346 kts 197°
2026-05-08 01:33 54.73453 0.38700 20688 ft 345 kts 197°
2026-05-08 01:33 54.71142 0.37579 20456 ft 344 kts 197°
2026-05-08 01:34 54.68840 0.36461 20226 ft 343 kts 197°
2026-05-08 01:34 54.66555 0.35354 20002 ft 342 kts 197°
2026-05-08 01:34 54.64256 0.34241 19770 ft 341 kts 197°
2026-05-08 01:34 54.61982 0.33141 19550 ft 340 kts 197°
2026-05-08 01:35 54.59705 0.32042 19334 ft 339 kts 197°
2026-05-08 01:35 54.57439 0.30948 19117 ft 338 kts 197°
2026-05-08 01:35 54.55179 0.29859 18893 ft 337 kts 197°
2026-05-08 01:35 54.52932 0.28777 18676 ft 335 kts 197°
2026-05-08 01:36 54.50749 0.27731 18459 ft 316 kts 197°
2026-05-08 01:36 54.48667 0.26730 18214 ft 308 kts 197°
2026-05-08 01:36 54.46617 0.25742 17975 ft 305 kts 197°
2026-05-08 01:36 54.44568 0.24760 17723 ft 304 kts 197°
2026-05-08 01:37 54.42567 0.23805 17463 ft 304 kts 197°
2026-05-08 01:37 54.40524 0.22827 17244 ft 302 kts 197°
2026-05-08 01:37 54.38483 0.21853 17001 ft 301 kts 197°
2026-05-08 01:37 54.36494 0.20903 16770 ft 299 kts 197°
2026-05-08 01:38 54.34500 0.19952 16532 ft 298 kts 197°
2026-05-08 01:38 54.32495 0.18998 16298 ft 297 kts 197°
2026-05-08 01:38 54.30503 0.18049 16070 ft 296 kts 196°
2026-05-08 01:38 54.28525 0.17109 15826 ft 295 kts 196°
2026-05-08 01:39 54.26553 0.16172 15598 ft 294 kts 196°
2026-05-08 01:39 54.24586 0.15240 15378 ft 293 kts 196°
2026-05-08 01:39 54.22627 0.14311 15168 ft 291 kts 196°
2026-05-08 01:39 54.20681 0.13389 15007 ft 290 kts 196°
2026-05-08 01:40 54.18745 0.12475 14858 ft 290 kts 196°
2026-05-08 01:40 54.16789 0.11550 14717 ft 291 kts 196°
2026-05-08 01:40 54.14842 0.10629 14563 ft 289 kts 196°
2026-05-08 01:40 54.12906 0.09718 14419 ft 288 kts 196°
2026-05-08 01:41 54.10977 0.08807 14278 ft 288 kts 195°
2026-05-08 01:41 54.09045 0.07899 14136 ft 287 kts 195°
2026-05-08 01:41 54.07125 0.06997 13992 ft 286 kts 195°
2026-05-08 01:41 54.05208 0.06096 13836 ft 286 kts 195°
2026-05-08 01:42 54.03290 0.05194 13681 ft 286 kts 195°
2026-05-08 01:42 54.01376 0.04298 13510 ft 285 kts 195°
2026-05-08 01:42 53.99464 0.03402 13346 ft 284 kts 196°
2026-05-08 01:42 53.97556 0.02509 13190 ft 285 kts 196°
2026-05-08 01:43 53.95651 0.01618 13029 ft 284 kts 195°
2026-05-08 01:43 53.93744 0.00727 12868 ft 284 kts 196°
2026-05-08 01:43 53.91840 -0.00162 12710 ft 283 kts 196°
2026-05-08 01:43 53.89941 -0.01046 12560 ft 283 kts 196°
2026-05-08 01:44 53.88044 -0.01931 12394 ft 283 kts 196°
2026-05-08 01:44 53.86146 -0.02815 12234 ft 283 kts 196°
2026-05-08 01:44 53.84253 -0.03694 12078 ft 282 kts 196°
2026-05-08 01:44 53.82361 -0.04572 11923 ft 281 kts 196°
2026-05-08 01:45 53.80478 -0.05447 11771 ft 281 kts 196°
2026-05-08 01:45 53.78589 -0.06323 11615 ft 281 kts 196°
2026-05-08 01:45 53.76711 -0.07192 11468 ft 280 kts 196°
2026-05-08 01:45 53.74832 -0.08062 11301 ft 280 kts 196°
2026-05-08 01:46 53.72953 -0.08915 11154 ft 279 kts 193°
2026-05-08 01:46 53.71013 -0.09016 10990 ft 281 kts 176°
2026-05-08 01:46 53.69101 -0.08565 10859 ft 282 kts 171°
2026-05-08 01:46 53.67188 -0.07851 10718 ft 281 kts 167°
2026-05-08 01:47 53.65295 -0.07020 10579 ft 282 kts 166°
2026-05-08 01:47 53.63397 -0.06134 10431 ft 282 kts 166°
2026-05-08 01:47 53.61542 -0.05088 10282 ft 282 kts 161°
2026-05-08 01:48 53.57893 -0.02646 9981 ft 282 kts 160°
2026-05-08 01:48 53.56066 -0.01467 9820 ft 281 kts 161°
2026-05-08 01:48 53.54244 -0.00307 9666 ft 279 kts 161°
2026-05-08 01:48 53.52448 0.00843 9537 ft 268 kts 160°
2026-05-08 01:49 53.50772 0.01927 9412 ft 248 kts 160°
2026-05-08 01:49 53.49202 0.02937 9270 ft 238 kts 161°
2026-05-08 01:49 53.47672 0.03919 9137 ft 232 kts 161°
2026-05-08 01:49 53.46173 0.04879 9002 ft 230 kts 160°
2026-05-08 01:50 53.44674 0.05839 8887 ft 230 kts 160°
2026-05-08 01:50 53.43186 0.06794 8782 ft 229 kts 160°
2026-05-08 01:50 53.41699 0.07748 8680 ft 229 kts 160°
2026-05-08 01:50 53.40212 0.08700 8580 ft 228 kts 160°
2026-05-08 01:51 53.38730 0.09646 8466 ft 228 kts 161°
2026-05-08 01:51 53.37248 0.10592 8364 ft 228 kts 160°
2026-05-08 01:51 53.35771 0.11536 8259 ft 227 kts 160°
2026-05-08 01:51 53.34294 0.12477 8156 ft 227 kts 160°
2026-05-08 01:52 53.32820 0.13418 8044 ft 227 kts 160°
2026-05-08 01:52 53.31349 0.14355 7949 ft 226 kts 160°
2026-05-08 01:52 53.29880 0.15288 7854 ft 225 kts 160°
2026-05-08 01:52 53.28419 0.16216 7764 ft 225 kts 160°
2026-05-08 01:53 53.26958 0.17147 7674 ft 223 kts 160°
2026-05-08 01:53 53.25503 0.18073 7582 ft 224 kts 160°
2026-05-08 01:53 53.24048 0.18995 7473 ft 224 kts 160°
2026-05-08 01:53 53.22593 0.19917 7363 ft 224 kts 160°
2026-05-08 01:54 53.21143 0.20835 7278 ft 223 kts 160°
2026-05-08 01:54 53.19711 0.21742 7195 ft 223 kts 160°
2026-05-08 01:54 53.18266 0.22657 7132 ft 223 kts 160°
2026-05-08 01:54 53.16820 0.23570 6987 ft 223 kts 160°
2026-05-08 01:55 53.15366 0.24489 6871 ft 222 kts 160°
2026-05-08 01:55 53.13921 0.25401 6742 ft 222 kts 160°
2026-05-08 01:55 53.12479 0.26312 6621 ft 222 kts 160°
2026-05-08 01:55 53.11036 0.27222 6494 ft 222 kts 160°
2026-05-08 01:56 53.09595 0.28130 6371 ft 221 kts 160°
2026-05-08 01:56 53.08159 0.29033 6267 ft 220 kts 160°
2026-05-08 01:56 53.06729 0.29935 6158 ft 220 kts 160°
2026-05-08 01:56 53.05301 0.30831 6052 ft 220 kts 160°
2026-05-08 01:57 53.03865 0.31732 5943 ft 220 kts 160°
2026-05-08 01:57 53.02434 0.32631 5836 ft 219 kts 160°
2026-05-08 01:57 53.01008 0.33526 5734 ft 219 kts 160°
2026-05-08 01:57 52.99583 0.34419 5627 ft 219 kts 160°
2026-05-08 01:58 52.98163 0.35309 5532 ft 218 kts 160°
2026-05-08 01:58 52.96738 0.36201 5427 ft 218 kts 160°
2026-05-08 01:58 52.95320 0.37087 5330 ft 217 kts 160°
2026-05-08 01:58 52.93907 0.37972 5221 ft 217 kts 160°
2026-05-08 01:59 52.92498 0.38850 5133 ft 217 kts 160°
2026-05-08 01:59 52.91083 0.39735 5034 ft 216 kts 160°
2026-05-08 01:59 52.89676 0.40613 4940 ft 216 kts 160°
2026-05-08 01:59 52.88272 0.41485 4819 ft 216 kts 160°
2026-05-08 02:00 52.86871 0.42360 4722 ft 215 kts 160°
2026-05-08 02:00 52.85470 0.43234 4608 ft 215 kts 160°
2026-05-08 02:00 52.84071 0.44100 4493 ft 214 kts 160°
2026-05-08 02:00 52.82679 0.44966 4399 ft 214 kts 160°
2026-05-08 02:01 52.81289 0.45832 4315 ft 213 kts 160°
2026-05-08 02:01 52.79902 0.46694 4237 ft 214 kts 160°
2026-05-08 02:01 52.78511 0.47554 4160 ft 213 kts 160°
2026-05-08 02:01 52.77121 0.48415 4089 ft 213 kts 160°
2026-05-08 02:02 52.75739 0.49274 4013 ft 213 kts 160°
2026-05-08 02:02 52.74352 0.50132 3946 ft 213 kts 160°
2026-05-08 02:02 52.72966 0.50992 3870 ft 212 kts 160°
2026-05-08 02:02 52.71583 0.51846 3798 ft 212 kts 160°
2026-05-08 02:03 52.70202 0.52697 3709 ft 212 kts 160°
2026-05-08 02:03 52.68823 0.53548 3650 ft 211 kts 160°
2026-05-08 02:03 52.67449 0.54397 3568 ft 211 kts 160°
2026-05-08 02:03 52.66066 0.55202 3486 ft 211 kts 167°
2026-05-08 02:04 52.64618 0.55553 3407 ft 210 kts 174°
2026-05-08 02:04 52.63161 0.55783 3328 ft 211 kts 175°
2026-05-08 02:04 52.61743 0.56302 3243 ft 211 kts 150°
2026-05-08 02:04 52.60727 0.58042 3156 ft 211 kts 135°
2026-05-08 02:05 52.59595 0.59571 3042 ft 212 kts 144°
2026-05-08 02:05 52.58807 0.60530 2971 ft 211 kts 146°
2026-05-08 02:05 52.58404 0.61009 2929 ft 211 kts 145°
2026-05-08 02:05 52.56115 0.63971 2684 ft 209 kts 142°
2026-05-08 02:06 52.54997 0.65466 2561 ft 209 kts 142°
2026-05-08 02:06 52.53880 0.66971 2421 ft 202 kts 142°
2026-05-08 02:06 52.52839 0.68368 2277 ft 185 kts 144°
2026-05-08 02:06 52.51749 0.69315 2133 ft 171 kts 157°
2026-05-08 02:07 52.50673 0.70070 2010 ft 168 kts 159°
2026-05-08 02:07 52.49592 0.70787 1873 ft 168 kts 161°
2026-05-08 02:07 52.48472 0.71272 1777 ft 165 kts 168°
2026-05-08 02:07 52.47344 0.71639 1729 ft 166 kts 170°
2026-05-08 02:08 52.46202 0.71974 1701 ft 166 kts 171°
2026-05-08 02:08 52.45063 0.72289 1701 ft 166 kts 171°
2026-05-08 02:08 52.43920 0.72594 1697 ft 167 kts 173°
2026-05-08 02:08 52.42770 0.72682 1695 ft 161 kts 180°
2026-05-08 02:09 52.41655 0.72664 1694 ft 162 kts 181°
2026-05-08 02:09 52.40530 0.72531 1696 ft 161 kts 185°
2026-05-08 02:09 52.39415 0.72334 1693 ft 161 kts 186°
2026-05-08 02:09 52.38302 0.72112 1700 ft 161 kts 187°
2026-05-08 02:10 52.37189 0.71854 1700 ft 162 kts 192°
2026-05-08 02:10 52.36273 0.70963 1691 ft 144 kts 218°
2026-05-08 02:10 52.35520 0.69911 1697 ft 144 kts 231°
2026-05-08 02:10 52.35286 0.68323 1694 ft 147 kts 258°
2026-05-08 02:11 52.34958 0.66753 1698 ft 145 kts 245°
2026-05-08 02:11 52.34609 0.65200 1697 ft 147 kts 254°
2026-05-08 02:11 52.34479 0.63529 1642 ft 151 kts 264°
2026-05-08 02:11 52.34485 0.61832 1422 ft 145 kts 271°
2026-05-08 02:12 52.34536 0.60751 1304 ft 143 kts 272°
2026-05-08 02:12 52.34708 0.58585 1033 ft 145 kts 278°
2026-05-08 02:12 52.34914 0.56981 840 ft 144 kts 282°
2026-05-08 02:12 52.35174 0.55409 742 ft 141 kts 287°
2026-05-08 02:13 52.35427 0.53852 680 ft 140 kts 283°
2026-05-08 02:13 52.35661 0.52320 537 ft 141 kts 283°
2026-05-08 02:13 52.35815 0.51265 320 ft 148 kts 283°
2026-05-08 02:13 52.36116 0.49204 55 ft 123 kts 283°
2026-05-08 02:14 52.36268 0.48133 39 ft 52 kts 283°
2026-05-08 02:14 52.36327 0.47724 36 ft 37 kts 283°
2026-05-08 02:14 52.36383 0.47373 35 ft 28 kts 285°
2026-05-08 02:14 52.36433 0.47297 34 ft 7 kts 17°
2026-05-08 02:15 52.36470 0.47353 35 ft 10 kts 46°
2026-05-08 02:15 52.36535 0.47431 36 ft 15 kts 28°
2026-05-08 02:15 52.36650 0.47534 37 ft 21 kts 30°
2026-05-08 02:15 52.36756 0.47666 37 ft 13 kts 62°
2026-05-08 02:16 52.36778 0.47699 37 ft 2 kts
2026-05-08 02:16 52.36802 0.47682 37 ft 6 kts 327°
2026-05-08 02:16 52.36815 0.47658 36 ft 0 kts 306°